Regional Weather Roundup
Issued by NWS

Home | Current Version | Previous Version | Graphics & Text | Print | Product List | Glossary On
Versions: 1 2 3 4 5 6 7 8 9 10 11 12 13 14 15 16 17 18 19 20 21 22 23 24 25 26 27 28 29 30 31 32 33 34 35 36 37 38 39 40 41 42 43 44 45 46 47 48 49 50
000
ASUS43 KBIS 181610
RWRND

NORTH DAKOTA REGIONAL WEATHER ROUNDUP
NATIONAL WEATHER SERVICE BISMARCK ND
1000 AM CST WED JAN 18 2017

NOTE: "FAIR" INDICATES FEW OR NO CLOUDS BELOW 12,000 FEET WITH NO
SIGNIFICANT WEATHER AND/OR OBSTRUCTIONS TO VISIBILITY.


NDZ001>003-009>011-017-181700-
NORTHWEST NORTH DAKOTA

CITY           SKY/WX    TMP DP  RH WIND       PRES   REMARKS
WILLISTON      FAIR      28  20  71 SW9       29.64F WCI  19
MINOT          FAIR      36  27  69 SW17      29.66R
MINOT AFB      CLOUDY    35  27  73 SW12      29.64S
$$

NDZ018>021-031>035-040>046-181700-
SOUTHWEST NORTH DAKOTA

CITY           SKY/WX    TMP DP  RH WIND       PRES   REMARKS
BISMARCK       FAIR      22  15  75 CALM      29.76S
DICKINSON      FAIR      34  21  59 SW8       29.69S
GARRISON         N/A     28  22  78 SW3       29.70S
HETTINGER ARPT CLOUDY    30  20  66 SW3       29.76S
$$

NDZ004>008-012>016-024-026-027-054-181700-
NORTHEAST NORTH DAKOTA

CITY           SKY/WX    TMP DP  RH WIND       PRES   REMARKS
GRAND FORKS    CLOUDY    24  18  77 SE6       29.72R WCI  17
GRND FRKS AFB  CLOUDY    30  21  69 CALM      29.71S
DEVILS LAKE    FAIR      30  24  78 SW10      29.69S
$$

NDZ022-023-025-028>030-036>039-047>053-181700-
SOUTHEAST NORTH DAKOTA

CITY           SKY/WX    TMP DP  RH WIND       PRES   REMARKS
FARGO          CLOUDY    24  18  77 S9        29.77S WCI  14
JAMESTOWN      FAIR      31  23  72 SW7       29.73S
$$




USA.gov is the U.S. government's official web portal to all federal, state and local government web resources and services.